Location: ?????????
(41.2393°N, 22.9479°E)
Time: 21:48:50
(UTC+00:00)

Cosmos 1812 - Pass Details

Date: 17 November 2025
Orbit: 338 x 347 km, 82.5° (Epoch: 13 December)

Event Time Altitude Azimuth Distance (km) Brightness Sun altitude
Rises 15:44:41 0° 163° (SSE) 2,257 6.0 -7.3°
Reaches altitude 10° 15:46:52 10° 150° (SSE) 1,405 4.8 -7.7°
Maximum altitude 15:49:27 25° 92° (E) 815 3.2 -8.2°
Drops below altitude 10° 15:52:01 10° 34° (NE) 1,402 4.4 -8.7°
Enters shadow 15:53:02 - 26° (NNE) 1,785 5.0 -8.8°
